DELTA 1 DEB, 21295

Orbit data source: Space-Track

DELTA 1 DEB, 21295 is space debris in SSO originally from a launch on Thu, 12 Jun 1975 UTC launched from the Air Force Western Test Range (AFWTR). Debris objects in space refer to the collection of defunct objects orbiting the Earth. Examples of debris include non-operational satellites, rocket bodies, and fragments generated from explosions, collisions, or faulty payload assembly.

Loading next visibility...
DELTA 1 DEB details
Identifier
21295, 1975-052AG
Orbit
SSO
Last TLE update13 hours ago
Origin
Flag of USGSFC (US)
ManufacturerUnknown
MissionSpacecraft
Bus & MotorUnknown
MassUnknown
Launch date (UTC)
1975-06-12 (50 years ago)
Launch vehicleUnknown
Launch site
Air Force Western Test Range (AFWTR)
Object type
Payload
Rocket body
Debris
Shape & HBRUnknown
Radar Cross SectionSmall (<0.1 m²)

Expand to show TLE details & history

TLE from 13 hours ago
0 DELTA 1 DEB
1 21295U 75052AG  24361.02810604  .00000408  00000-0  79325-3 0  9996
2 21295  99.7472 195.0524 0019493 194.6000 319.9757 13.42686237645537
Epoch: 2024-12-26T00:40Z
Definitive object data (Epoch: 2024-12-26T00:40:28.361Z)
Latitude25.20298°
Longitude-85.46586°
Altitude1,091.067 km
Speed7.314 km/s
True Right ascension01h 18m 39s
True Declination25° 04' 36"
Sunlit
Object was in daylight at TLE epoch
Visualization TLE readout
Latitude-20.89335°
Longitude-93.30673°
Altitude1,092.601 km
Speed7.312 km/s
Apparent Right ascension00h 47m 12s
Apparent Declination-29° 29' 48"
Sunlit
Object is in daylight
Visualization observer readout
Local Sidereal Time12:47:05
Azimuth359.851° N
Elevation-79.58°
Doppler factor1
Orbital elements
Apogee altitude1,111.174 km
Perigee altitude1,082.033 km
Semi-major axis7,474.74 km
Eccentricity0.0019493
Inclination99.7472°
RAAN195.0524°
Arg. of periapsis194.6°
True anomaly319.83178°
Mean anomaly319.9757°
Eccentric anomaly319.90377°
Mean motion3.35853 °/min
BSTAR0.00079325
Orbital period107.19 mins
Loading maneuver chart data...
Loading historical data...
Loading historical data...
Loading historical data...
Loading historical data...
Loading historical data...
Loading historical data...
Loading historical data...

DELTA 1 DEB Visibility forecast

Observer location: undefined°, undefined

Span
Click to sort rows by Start time (UTC) header in descending order
Start Az.
Max El. time (UTC)
Max El. Az.
Max El.
End time (UTC)
End Az.
10 mins2024-12-26 14:19:24.789Z216.577° SW2024-12-26 14:24:24.789Z269.056° W22.723°2024-12-26 14:29:24.789Z318.307° NNW
11 mins2024-12-27 01:33:24.789Z29.147° NE2024-12-27 01:38:24.789Z92.611° ESE37.562°2024-12-27 01:44:24.789Z173.262° S
9 mins2024-12-27 03:20:24.789Z341.88° N2024-12-27 03:24:24.789Z291.836° WNW25.508°2024-12-27 03:29:24.789Z241.922° WSW
9 mins2024-12-27 11:50:24.789Z105.964° ESE2024-12-27 11:54:24.789Z58.074° ENE24.973°2024-12-27 11:59:24.789Z8.149° NNE
|